GFSWCAN_sfc_30mbdewp_114.txt.gz
Dewpoint
32 32 35 37 40 41 41 41 41 39 38 39 38 38 38 38 39 37 33 36 31 26 21 24 23 19 18 17 15 19 18 25 21 21 19 16 17 16 20 20 22 23 21 20 19 16 12 26 27 28 31 36 41 40
29 31 33 36 37 40 41 42 40 38 39 39 37 38 38 38 38 37 32 35 36 32 25 30 29 26 23 22 21 23 20 22 22 21 17 18 17 18 17 18 27 23 27 25 22 18 24 30 35 39 39 38 40 38
26 30 32 35 36 39 39 40 40 39 39 38 38 38 37 38 38 37 34 37 37 31 29 27 25 27 30 29 26 23 24 24 30 32 29 24 21 20 16 16 23 25 26 28 29 33 32 33 36 37 37 39 41 40
27 28 31 34 36 37 40 40 41 39 38 38 37 37 37 37 38 38 34 36 33 32 26 20 27 27 28 30 30 28 24 29 30 31 26 21 19 20 19 20 24 28 30 27 28 30 31 31 32 35 36 35 33 33
28 28 28 30 36 35 39 39 40 38 38 38 37 37 35 35 37 39 37 37 33 27 24 22 25 25 27 28 30 30 29 26 24 27 23 21 19 21 22 26 27 31 27 24 24 28 29 28 31 33 31 31 33 31
29 28 28 29 35 33 38 39 40 38 37 37 37 36 36 37 38 37 32 35 37 33 28 21 25 26 30 30 29 30 29 28 28 26 23 24 24 23 24 20 31 32 31 30 26 31 30 31 31 32 30 30 30 30
28 29 30 29 33 33 39 39 38 37 36 36 37 36 36 38 37 30 28 35 36 35 30 23 22 28 31 31 30 30 31 33 30 26 26 24 23 28 22 17 22 28 30 30 30 31 29 27 27 30 32 31 31 28
29 30 30 30 34 35 39 39 39 38 35 36 36 36 37 37 37 34 39 40 38 32 31 24 22 25 32 29 28 31 29 31 30 27 29 25 24 26 20 25 26 26 30 26 26 25 26 28 29 28 29 32 29 26
29 30 31 33 35 38 38 39 40 39 36 36 36 36 37 36 33 30 37 37 38 33 26 25 20 20 32 31 31 31 29 26 28 26 25 26 22 20 25 26 24 23 22 21 25 21 20 19 21 22 24 25 25 24
31 32 33 34 37 38 38 39 39 37 36 35 35 32 27 33 37 38 36 32 32 32 31 25 23 22 29 30 30 30 30 25 24 24 26 26 20 25 24 24 23 22 19 19 20 19 17 16 17 18 19 21 23 23
32 34 35 37 39 37 38 39 38 36 35 32 30 28 34 38 34 32 28 27 28 25 28 25 23 22 29 26 26 32 28 29 22 23 23 21 22 21 22 21 22 19 18 16 16 16 15 15 15 16 17 18 18 20
34 36 38 37 37 37 38 38 37 35 32 31 33 37 36 33 30 26 25 26 24 19 26 25 25 26 27 31 28 30 26 27 20 26 24 21 19 20 20 19 18 17 15 14 13 13 13 12 13 15 16 16 17 18
38 37 37 37 37 38 38 38 35 35 36 36 34 30 29 29 24 21 18 22 22 25 27 27 26 28 29 32 30 29 25 24 28 25 22 18 19 21 20 19 17 15 13 12 11 11 12 12 12 13 13 14 16 16
37 37 38 38 37 38 38 37 36 36 34 29 27 24 25 22 22 22 20 23 29 29 29 29 27 28 30 29 30 25 28 28 23 20 17 19 20 19 18 19 17 16 14 13 12 11 11 11 11 12 12 13 13 13
36 37 36 36 36 36 36 37 37 37 32 27 28 21 24 26 27 28 29 28 29 31 30 29 30 29 29 27 29 27 25 20 18 17 17 21 19 18 18 17 16 15 14 13 12 11 10 10 10 10 11 12 12 12
35 35 33 35 36 36 37 36 35 34 29 25 21 23 25 25 25 26 28 26 26 28 32 31 28 27 26 27 24 21 20 18 17 18 18 18 18 18 17 17 16 15 14 13 12 11 10 9 9 10 10 10 10 11
30 28 34 34 34 36 37 33 32 27 23 20 20 20 22 24 24 23 23 23 24 27 28 29 25 24 25 22 18 17 18 17 18 19 18 18 17 16 16 17 16 16 14 13 12 11 10 10 10 10 10 10 11 10
28 33 34 35 36 34 32 32 25 21 18 19 18 18 18 18 20 20 21 22 24 26 26 24 21 20 20 19 16 16 17 19 18 17 17 17 16 16 16 16 16 15 14 13 11 11 11 10 9 9 9 10 9 10
33 34 36 37 34 32 28 25 21 18 18 18 18 18 18 18 19 19 20 22 22 23 22 19 17 14 13 14 15 17 18 18 17 18 18 18 17 15 15 15 15 14 14 13 12 11 10 10 10 9 9 8 8 9
36 36 37 36 30 27 23 20 24 18 17 18 18 17 17 17 17 18 19 19 19 18 15 12 11 12 14 16 18 18 19 20 19 17 16 17 17 16 16 14 13 13 12 12 11 11 10 9 9 9 9 9 9 9
38 37 36 33 29 24 20 19 18 17 16 16 16 15 15 13 14 15 15 13 15 12 11 12 14 15 17 17 18 18 18 19 18 19 18 16 17 16 15 14 13 12 11 11 11 10 10 10 9 9 10 10 10 10
35 36 32 30 23 22 21 22 18 19 17 18 17 14 14 13 13 13 11 12 11 12 13 13 14 15 15 15 15 17 17 17 18 17 18 17 15 15 14 13 12 12 12 12 11 11 11 10 11 11 11 10 11 11
30 29 26 24 20 20 19 26 20 18 15 16 15 13 13 13 11 9 11 10 12 15 15 15 15 16 14 15 14 13 14 14 14 14 14 14 14 14 13 13 13 12 11 11 11 11 11 10 10 11 10 10 10 9
21 20 19 20 20 19 23 20 18 16 16 14 12 11 9 9 8 9 8 9 12 14 14 14 13 13 12 11 11 12 12 12 12 13 13 12 12 12 12 12 12 12 12 11 11 11 11 11 10 9 9 9 9 8
20 15 17 15 17 17 16 15 15 13 13 13 12 11 11 9 7 6 7 9 11 12 12 12 11 10 10 11 11 11 12 12 11 10 12 12 12 11 11 11 11 11 12 12 11 11 11 10 10 9 8 8 7 7
14 13 15 15 15 15 14 12 12 12 12 12 12 11 9 7 5 6 6 10 11 12 12 11 11 10 9 9 9 9 10 11 10 10 10 10 10 11 10 9 9 9 12 12 12 11 10 10 9 9 8 8 8 7
11 13 12 10 13 12 13 13 12 12 11 10 11 8 6 3 5 6 9 11 11 11 10 10 10 9 9 9 9 10 10 10 10 9 9 8 8 9 9 9 8 9 10 11 11 11 10 10 10 9 9 9 8 8
12 12 11 9 9 8 9 9 10 10 11 9 8 5 3 3 4 8 10 11 11 10 10 10 10 9 9 9 10 10 10 9 9 8 8 7 7 8 8 8 8 7 8 11 11 11 10 10 10 9 9 8 8 8
9 8 7 3 5 5 5 7 7 8 7 7 6 4 5 6 8 9 10 11 11 10 9 8 7 7 7 6 7 7 9 9 8 6 5 5 6 6 6 6 7 8 8 9 10 11 10 9 9 9 8 8 8 8
7 7 4 2 1 3 5 5 6 7 7 7 6 5 5 7 7 9 11 11 11 11 9 8 7 8 7 7 6 5 4 5 6 7 6 4 4 5 5 5 5 6 7 7 8 8 8 8 8 8 7 6 6 6
7 7 5 4 4 5 6 5 5 6 6 6 6 6 6 7 9 9 10 10 8 6 7 6 5 5 5 5 5 4 4 3 1 2 4 4 4 4 4 3 4 5 5 5 5 6 6 6 6 5 4 4 3 3
7 5 3 3 4 6 7 8 7 6 6 6 5 5 5 7 6 8 8 7 7 7 7 8 8 6 5 3 1 2 2 2 1 -1 -1 -0 1 1 2 2 3 4 4 4 4 5 5 5 4 4 3 2 1 1
5 5 5 5 5 5 7 7 6 5 6 5 5 5 6 6 5 7 5 8 9 10 8 8 7 4 -1 -0 0 -0 -1 -1 -1 0 -3 -4 -7 -2 2 3 3 3 2 2 2 2 2 2 2 1 -0 -1 -2 -2

GFSWCAN_sfc_30mbdewp_117.txt.gz
Dewpoint
36 37 37 39 40 42 42 41 42 43 41 41 39 39 39 39 39 36 34 34 28 25 21 21 20 19 16 16 12 17 17 22 19 18 16 16 14 14 15 18 21 19 22 24 19 15 15 32 28 29 34 37 37 39
33 34 35 35 38 38 41 42 42 43 41 40 39 40 39 39 39 38 35 34 31 32 28 31 27 24 21 19 21 22 19 20 21 20 22 19 19 17 17 17 27 23 25 24 24 23 33 34 33 37 36 37 37 41
31 31 31 33 35 37 40 41 42 42 41 39 40 39 39 38 39 38 34 34 34 30 26 23 21 24 27 25 24 20 20 21 23 30 26 23 20 16 18 19 22 22 29 26 23 28 30 31 32 34 36 35 36 36
29 28 29 31 34 37 38 39 39 42 41 39 39 39 39 39 39 39 37 35 30 28 24 22 23 23 26 26 28 26 23 27 26 29 25 22 19 17 19 18 18 27 31 26 23 26 28 28 30 31 33 33 35 34
29 29 29 31 32 36 38 39 38 39 40 38 39 39 39 38 39 39 37 36 31 26 26 23 24 22 24 26 26 27 26 25 24 24 25 21 18 17 17 19 24 31 28 24 23 29 28 29 31 32 30 30 31 33
30 29 29 30 32 35 37 39 40 40 40 38 38 38 38 38 39 37 33 36 35 31 26 21 25 24 26 27 26 27 26 26 28 26 24 23 22 21 20 20 31 32 32 30 28 30 31 31 33 32 31 30 31 31
31 30 30 29 30 34 36 35 41 41 40 38 38 37 37 38 37 32 29 35 33 33 29 22 22 26 26 27 28 28 29 32 30 29 25 22 21 27 24 20 28 29 30 31 31 29 30 28 27 30 32 34 34 32
32 31 30 30 30 34 34 33 39 40 38 37 38 37 38 38 35 32 38 38 35 31 29 23 20 26 30 28 28 31 30 32 32 27 24 23 22 23 18 24 25 26 29 26 26 24 25 25 25 27 28 29 30 26
33 32 31 31 31 34 33 38 39 37 36 37 37 36 36 35 33 30 38 38 39 34 25 24 22 22 30 30 34 31 30 26 25 27 23 23 21 18 26 27 24 23 23 21 23 24 20 20 19 20 22 25 26 24
33 32 32 32 32 34 35 39 37 37 36 36 36 33 29 32 37 36 35 31 32 33 29 24 23 23 28 29 29 30 30 26 25 24 23 25 20 26 24 24 24 22 20 19 20 19 17 17 16 18 18 20 22 24
32 31 32 33 34 35 38 39 38 36 36 33 31 28 32 37 32 30 28 26 26 25 25 23 20 22 26 25 26 30 27 29 23 23 23 22 22 23 23 22 21 20 18 16 16 15 14 14 14 16 17 18 19 20
30 31 33 34 35 39 40 39 38 35 34 29 32 34 33 28 29 25 23 23 24 16 24 24 25 24 25 27 28 28 25 24 19 25 23 20 21 20 20 20 18 17 15 14 13 13 13 12 13 15 16 17 18 18
32 33 33 36 39 39 40 39 36 35 35 34 29 30 29 28 22 20 19 19 19 23 28 27 26 27 28 29 30 29 24 22 27 25 23 20 20 21 21 19 18 16 14 13 12 12 13 13 13 13 14 15 16 17
34 34 36 39 39 39 39 37 35 35 28 23 25 22 25 23 25 20 16 19 29 29 28 28 27 27 28 29 28 26 28 29 24 22 20 21 23 22 19 18 18 16 16 14 14 12 12 12 12 13 13 14 14 14
37 38 38 38 38 38 38 36 37 33 32 28 28 23 24 29 30 30 32 30 31 31 30 29 28 27 27 27 30 26 25 22 21 19 20 22 22 19 19 18 17 16 15 15 14 12 12 12 12 12 12 13 13 13
37 37 35 38 37 37 37 36 36 34 30 27 26 25 27 26 26 28 29 28 30 32 32 30 28 26 25 26 24 23 21 20 20 21 20 19 19 19 19 18 17 16 16 15 14 13 12 11 11 12 12 12 12 12
35 36 37 38 38 37 36 33 30 27 25 23 22 24 25 27 27 26 28 27 28 30 28 27 25 25 27 22 21 21 21 21 20 21 21 20 18 17 17 17 17 17 15 14 13 12 12 12 12 12 12 12 13 12
34 36 38 36 35 34 34 32 27 23 21 21 21 22 22 23 24 24 24 26 28 28 27 27 25 23 23 21 21 20 21 22 22 21 19 18 17 17 17 16 16 16 15 13 13 13 14 14 14 12 13 11 15 15
33 35 36 34 31 32 30 26 23 20 21 20 21 21 21 21 22 23 24 24 25 26 26 25 24 21 19 19 19 20 21 20 19 20 18 18 17 16 16 15 15 15 14 15 15 12 12 12 12 11 11 11 11 11
35 36 35 32 31 27 22 23 24 20 20 20 20 20 20 21 21 22 22 22 23 23 20 19 18 17 18 18 22 22 22 23 20 19 18 18 18 17 16 15 15 14 13 14 13 13 12 12 11 11 10 11 13 11
34 34 34 33 29 23 21 21 22 21 19 19 19 19 19 19 20 21 20 19 20 17 16 16 16 17 20 20 22 22 21 23 21 22 21 17 18 16 16 15 15 14 13 14 14 13 13 12 11 11 13 13 13 13
36 36 34 30 26 22 21 22 20 20 19 19 19 18 19 19 19 18 15 17 15 15 17 17 17 17 17 16 17 19 20 20 19 18 17 17 17 17 16 15 15 14 13 14 13 13 13 11 12 11 13 12 12 13
33 31 29 28 24 21 20 24 21 20 18 18 18 17 17 17 16 12 15 14 15 16 17 16 17 17 16 16 16 16 16 17 16 16 16 16 15 15 16 15 16 15 15 12 13 13 13 12 11 13 12 12 12 11
29 28 27 26 26 21 25 22 19 17 17 17 16 15 14 15 11 13 13 13 16 16 15 15 15 15 14 14 13 14 14 14 13 15 15 14 13 13 13 13 14 13 14 13 12 13 12 12 11 12 11 11 10 11
25 20 23 20 22 21 19 18 17 16 16 16 15 14 14 13 13 12 13 12 14 15 14 14 14 13 14 13 13 13 14 14 13 12 13 13 13 12 11 11 12 12 13 15 15 14 13 12 11 11 10 11 10 9
20 18 20 19 19 19 18 16 16 15 15 15 15 15 14 13 11 11 10 14 15 15 15 15 13 12 11 12 11 11 12 12 12 11 11 11 11 12 11 11 12 13 12 13 13 13 14 11 11 9 10 9 9 9
16 17 15 13 16 16 18 17 16 16 15 14 14 13 12 9 9 10 13 15 14 15 15 14 13 12 11 11 11 12 12 12 13 12 10 10 10 10 11 11 10 10 10 12 12 12 12 12 12 12 11 11 10 9
15 16 14 15 14 14 14 15 15 14 15 14 14 12 8 8 8 12 13 16 16 13 13 13 12 11 11 11 12 12 12 11 11 10 9 9 9 9 9 9 9 9 9 10 10 12 11 11 12 11 11 12 10 9
15 14 12 8 11 11 12 13 13 12 11 13 13 9 9 10 12 12 14 14 14 12 11 11 12 12 12 11 12 12 12 11 9 6 5 6 7 10 7 7 8 8 9 9 10 10 10 11 10 9 9 10 8 8
12 12 10 7 5 8 10 10 11 11 9 11 8 6 7 9 10 16 15 14 13 13 13 12 11 10 9 9 9 9 10 10 10 9 7 6 8 7 6 6 6 7 7 8 7 9 8 10 9 8 7 6 7 7
11 11 10 9 8 9 9 10 10 10 10 9 11 11 9 9 10 13 15 16 17 14 12 11 11 10 9 8 8 7 7 8 6 6 7 7 6 6 5 5 6 6 6 6 6 6 6 5 5 4 4 4 3 4
12 9 7 6 7 9 10 11 10 10 9 9 8 8 9 10 9 10 11 13 12 11 11 11 10 10 10 11 9 8 8 6 5 4 3 4 4 4 4 5 5 6 5 4 5 5 5 4 4 4 3 3 3 2
9 9 9 8 8 7 9 9 8 7 8 8 9 9 10 9 8 12 12 13 12 12 12 12 13 10 6 5 6 5 4 4 2 1 -1 -1 -1 3 5 5 5 4 3 3 3 3 3 3 3 2 2 1 0 -0

GFSWCAN_sfc_30mbdewp_120.txt.gz
Dewpoint
35 37 39 38 40 42 42 43 42 42 42 42 41 40 40 40 39 37 33 35 31 27 22 24 19 20 18 17 14 21 17 17 19 17 16 15 18 18 16 17 21 20 20 20 22 17 18 32 31 25 31 35 35 33
33 36 37 39 39 39 40 42 42 42 42 43 40 41 40 40 39 39 34 37 34 31 29 31 30 29 24 20 21 23 19 23 19 19 23 22 19 18 15 14 26 23 28 26 27 25 31 30 30 32 34 33 33 32
32 34 36 36 38 39 39 40 41 42 43 42 40 41 40 40 39 38 35 37 35 30 28 24 22 23 23 23 25 22 18 20 23 27 26 22 21 16 15 18 23 18 28 27 23 29 28 29 30 32 32 32 34 34
31 33 34 33 34 37 38 39 42 42 43 41 40 40 40 39 39 38 36 37 33 29 25 23 22 22 22 24 23 24 22 26 28 28 26 23 20 17 16 18 17 28 28 25 24 25 27 28 31 31 32 32 32 34
30 31 32 32 32 35 36 39 41 40 42 41 40 40 40 39 39 38 38 38 34 28 27 25 26 26 22 23 23 24 24 23 23 24 23 21 19 18 19 19 20 31 28 23 20 30 28 29 31 32 31 30 31 31
31 30 31 31 31 33 37 37 39 40 41 42 40 39 39 39 39 37 34 38 37 33 29 22 26 26 23 23 23 24 25 25 25 27 23 22 21 21 18 16 31 32 32 32 30 31 32 31 32 31 31 32 32 32
32 31 30 30 31 32 36 38 39 38 41 40 40 38 39 39 38 31 30 36 35 35 30 23 19 20 24 26 24 25 28 30 27 27 24 22 21 23 24 19 32 30 31 32 32 29 29 28 25 31 30 30 35 30
33 32 31 31 31 32 36 37 39 39 39 40 39 38 38 38 36 33 38 36 35 32 28 24 21 31 26 28 28 31 29 30 31 27 24 23 22 23 23 26 27 28 29 27 24 25 25 25 23 23 25 27 28 27
34 33 33 32 32 32 36 34 38 40 39 39 38 38 36 33 32 35 39 39 38 33 25 24 20 23 28 29 32 30 29 27 25 28 24 23 22 21 29 27 24 24 24 22 22 24 21 20 18 19 20 22 23 24
34 34 33 33 32 33 35 32 36 41 39 37 36 33 29 32 38 38 36 31 32 31 29 23 24 27 28 28 28 29 29 24 24 24 23 24 21 28 25 25 24 22 20 19 18 18 16 16 16 17 18 19 21 21
34 34 34 33 32 34 34 36 39 39 37 34 32 31 33 37 33 32 28 26 25 24 23 21 22 24 29 26 27 30 27 28 23 22 23 22 23 25 25 22 21 20 18 16 16 15 14 14 14 16 18 18 18 19
33 33 33 33 33 34 34 39 38 35 33 30 33 35 34 28 29 26 23 22 22 14 22 23 23 23 24 27 26 29 26 24 19 26 24 20 22 23 21 20 18 17 15 14 13 13 14 13 14 15 16 16 17 18
33 33 32 32 34 35 37 38 36 34 34 31 27 29 27 26 21 18 16 18 17 21 27 27 27 27 28 28 29 29 25 22 29 27 23 22 22 22 22 20 18 17 16 15 13 13 13 14 14 14 15 16 17 17
33 33 33 35 36 36 39 37 35 33 25 23 24 21 23 20 19 16 17 16 22 27 29 29 28 27 28 28 28 25 26 29 24 21 20 22 23 22 22 20 19 16 15 15 15 13 13 13 14 14 15 16 15 15
34 34 35 36 38 39 37 36 33 32 30 27 25 20 22 28 31 32 33 32 33 32 31 30 29 26 29 27 28 26 25 23 22 19 21 23 24 23 22 20 18 17 17 17 15 13 13 13 14 13 14 14 14 15
35 35 38 39 38 38 37 35 34 32 29 28 27 24 29 27 27 30 30 30 32 34 32 31 27 25 25 25 24 23 21 21 21 22 21 21 21 21 20 19 18 17 18 17 15 15 14 14 13 13 13 14 13 14
37 35 38 39 38 35 32 28 24 25 25 25 26 26 27 28 27 27 29 29 30 31 28 26 23 22 30 24 23 23 21 22 23 23 23 22 19 18 19 18 18 18 17 16 14 13 13 13 15 13 14 12 15 13
34 37 38 37 35 32 30 29 26 23 22 25 24 24 24 26 26 26 27 28 29 30 28 28 26 22 23 23 22 22 23 24 23 21 19 19 19 19 19 17 17 18 16 14 14 16 16 15 18 17 17 14 17 18
37 37 35 33 30 29 28 26 25 22 24 23 23 23 24 24 25 25 26 27 27 27 27 26 24 24 21 22 22 23 22 21 20 20 20 20 18 17 17 16 17 16 15 15 14 14 15 14 14 14 15 15 15 12
36 36 34 32 32 26 24 25 26 26 24 23 22 23 23 23 23 25 25 24 25 26 23 22 20 21 21 22 25 25 25 23 20 19 19 19 19 20 17 18 15 16 17 17 16 13 17 18 14 13 12 13 14 15
33 33 33 32 28 24 23 23 23 22 21 23 21 22 21 22 24 24 22 22 23 22 19 20 19 20 22 23 24 23 23 25 22 24 19 19 21 19 18 16 15 15 15 15 17 17 16 14 14 14 15 15 16 13
34 35 33 30 26 23 23 23 23 22 22 21 21 22 22 22 22 21 19 20 18 19 21 19 19 18 18 18 20 21 22 21 20 19 19 19 18 19 17 18 18 16 15 16 16 15 15 14 14 16 16 16 16 12
33 32 30 28 25 23 22 25 22 21 19 21 20 19 19 20 19 15 18 17 17 19 22 19 20 19 17 18 17 17 19 18 17 18 17 17 16 17 16 16 16 18 17 13 14 14 13 12 14 14 15 16 15 15
31 30 28 27 25 22 24 23 21 18 19 19 19 17 17 19 14 15 17 18 17 18 17 17 17 16 16 16 15 16 17 15 15 17 17 16 14 15 15 15 14 14 14 14 12 14 13 15 12 17 12 14 12 12
26 24 26 22 25 22 21 19 19 18 17 18 16 16 17 15 16 16 16 16 15 17 16 17 16 15 16 17 15 13 16 18 14 13 14 15 14 13 13 12 12 11 13 15 15 16 15 11 13 12 10 14 10 11
23 22 21 22 21 21 19 18 18 17 17 17 18 18 16 17 15 14 14 16 18 17 18 18 16 15 13 14 13 12 13 14 14 13 13 13 13 15 14 14 16 13 12 14 14 13 14 16 13 10 11 11 7 8
20 19 18 16 20 19 21 21 19 18 17 16 18 16 16 13 13 14 18 18 18 18 18 17 15 13 13 16 14 13 13 15 16 13 11 11 10 11 12 12 12 11 10 11 11 14 12 12 13 14 14 14 12 10
18 18 17 17 18 18 18 18 17 17 17 18 18 15 14 12 13 15 18 22 20 18 17 16 15 14 13 13 14 14 14 13 12 11 10 10 10 10 9 10 10 9 10 10 9 13 12 12 12 14 13 14 11 10
17 17 16 13 16 16 17 17 18 16 15 16 18 15 13 14 17 19 20 17 17 17 15 15 16 15 15 14 15 14 13 13 11 8 6 11 12 10 9 8 9 9 10 11 11 9 9 10 10 10 9 10 8 9
16 17 15 11 10 13 15 15 17 14 12 15 11 8 9 10 13 21 18 17 16 16 15 15 15 13 12 12 11 12 13 13 13 13 9 9 11 9 8 7 8 8 8 8 8 11 9 10 11 11 8 8 10 9
14 15 14 13 12 14 14 13 13 13 13 11 14 13 10 10 12 18 17 17 20 19 16 14 13 13 12 12 10 9 9 10 9 9 9 9 8 8 7 6 7 7 7 7 6 7 7 7 6 6 6 4 3 4
15 14 11 10 11 11 11 13 12 13 12 11 11 11 11 11 9 11 14 20 16 14 14 13 13 12 13 14 12 11 11 9 7 6 5 7 7 6 6 6 7 7 6 5 5 5 5 5 6 5 5 5 3 2
12 12 12 11 10 9 10 11 10 11 12 12 11 10 11 11 10 14 15 16 15 15 14 15 15 15 10 10 9 8 7 7 5 3 1 1 2 5 7 6 6 5 4 5 4 4 3 3 4 3 2 1 1 -0

GFSWCAN_sfc_30mbdewp_126.txt.gz
Dewpoint
36 38 41 41 43 44 44 43 42 41 42 42 42 42 42 42 40 34 34 37 32 29 29 31 30 28 24 22 20 22 20 23 22 18 20 20 20 20 18 22 22 20 20 21 20 17 12 28 24 20 26 30 30 31
36 36 37 40 40 41 44 43 42 41 41 42 42 42 42 42 41 36 32 38 37 30 29 32 30 29 29 27 23 24 24 23 24 22 24 21 20 20 18 14 23 18 21 18 22 21 30 28 27 29 31 29 30 31
32 35 37 39 40 41 42 43 43 43 42 42 41 41 42 42 40 37 36 37 34 29 25 26 20 24 30 30 27 20 25 29 29 29 25 24 20 22 16 17 20 20 27 25 25 28 28 29 28 28 30 29 31 33
32 32 36 37 39 39 41 42 43 43 43 42 41 41 41 42 40 37 34 38 34 30 22 22 29 26 27 28 25 26 27 27 29 29 25 24 22 23 19 19 18 18 25 22 24 27 29 29 28 28 28 32 30 32
32 33 35 37 38 39 39 39 41 44 44 43 42 42 41 41 40 37 37 38 38 30 25 26 28 26 26 26 24 24 24 24 24 24 24 23 24 22 22 23 20 26 22 20 17 27 26 28 30 29 29 30 32 30
31 32 34 36 38 38 39 38 38 41 42 43 42 42 41 41 38 33 26 31 36 36 28 19 27 24 26 26 24 24 24 25 25 24 24 25 25 21 19 19 25 32 32 29 27 29 28 29 29 29 28 31 31 29
33 32 34 34 36 38 39 37 38 41 42 43 42 41 41 39 34 30 25 32 38 36 26 21 22 27 28 26 26 26 28 28 26 26 25 24 22 24 22 19 24 31 30 30 30 31 28 25 24 28 28 29 28 26
33 33 33 33 35 36 38 39 39 39 41 42 40 40 40 36 36 33 36 39 37 31 29 22 21 25 29 27 27 31 28 29 30 28 27 25 25 24 21 24 27 31 30 27 24 31 25 22 26 24 24 24 23 22
34 34 34 34 34 35 37 39 39 39 43 41 40 39 37 33 33 34 40 37 36 29 24 24 19 21 33 31 29 28 28 24 27 27 25 25 22 21 24 26 24 27 23 21 19 18 18 18 20 20 20 20 20 20
34 34 34 34 34 36 37 38 38 40 39 39 36 31 28 32 37 37 30 27 25 28 30 22 25 23 33 28 27 25 27 23 22 25 28 24 24 27 24 21 19 17 17 18 18 16 15 15 18 19 18 19 19 18
33 34 34 34 34 34 36 38 40 39 37 34 31 29 32 38 34 31 25 23 23 22 23 25 24 24 33 27 24 26 25 24 22 23 24 24 22 25 26 19 17 16 16 16 15 15 14 15 16 17 16 16 17 16
33 34 33 33 33 33 35 39 38 35 34 32 34 37 35 29 28 21 20 21 23 18 22 23 23 22 31 34 29 28 24 26 20 27 25 20 21 22 18 19 18 15 15 14 15 15 14 13 15 15 15 16 16 16
34 34 33 34 33 34 36 39 36 35 35 31 30 28 24 24 18 17 15 19 20 22 23 25 24 22 31 32 30 26 22 21 26 24 18 19 22 19 19 19 17 16 15 14 13 15 14 14 14 15 15 15 17 16
34 35 34 34 35 35 36 37 38 36 33 24 23 20 17 18 18 18 18 19 21 22 26 25 27 26 28 27 27 21 22 26 20 19 17 20 21 22 21 20 18 18 16 13 13 13 15 14 13 13 13 15 15 13
34 35 34 34 34 34 36 37 39 39 30 24 20 12 19 20 24 26 27 26 30 29 29 28 27 28 26 23 24 21 22 19 21 18 18 21 22 21 20 19 18 17 15 13 10 10 12 13 11 11 12 12 13 11
35 34 33 34 34 35 38 38 38 35 28 25 23 23 23 26 25 28 29 28 30 32 32 30 24 24 24 21 21 19 20 19 19 19 21 22 21 20 19 18 17 16 15 15 13 12 12 12 12 12 11 13 11 12
34 33 34 35 35 37 38 35 33 26 26 25 22 25 25 26 26 26 28 27 30 31 27 29 24 18 24 22 22 21 19 19 20 20 20 19 18 17 16 15 16 16 13 12 12 12 13 13 11 14 13 10 12 12
33 35 35 35 36 35 36 33 24 24 23 25 21 23 23 24 24 25 27 28 29 29 29 27 28 22 20 19 19 20 20 19 19 19 18 18 18 17 18 18 18 14 13 13 13 13 14 16 16 15 16 16 14 15
35 37 38 37 37 31 26 26 26 22 23 23 23 23 24 24 25 26 27 28 28 28 26 24 23 21 20 22 21 20 19 17 17 18 16 17 17 16 16 17 16 16 14 15 17 14 13 12 12 13 15 14 12 14
37 37 37 38 36 26 24 25 28 24 22 24 24 24 23 22 24 25 26 27 28 27 23 20 19 19 20 22 22 20 19 19 18 16 16 16 17 18 16 16 14 13 13 13 15 17 17 14 13 14 14 12 8 9
36 35 33 29 26 26 25 24 25 26 24 23 23 23 21 23 22 23 23 25 22 21 18 18 17 19 20 22 23 23 21 20 17 16 15 16 18 14 15 15 17 19 18 16 15 14 13 13 14 14 13 12 9 8
32 33 29 28 25 25 24 26 24 27 25 23 24 23 21 21 21 21 22 20 18 19 19 17 17 18 20 20 21 21 21 21 20 18 18 18 17 17 17 18 16 14 15 15 14 13 10 12 16 15 13 14 13 10
33 31 29 28 22 22 23 27 21 22 17 19 24 20 19 21 22 20 18 18 17 20 18 18 17 17 18 17 19 19 19 19 18 18 19 18 17 15 15 16 15 13 14 15 13 11 11 13 11 13 12 14 15 11
30 28 27 25 23 21 24 22 25 23 21 19 20 19 21 20 17 15 17 15 17 18 18 17 17 16 17 18 18 17 17 17 16 16 16 15 14 13 13 13 14 15 16 16 14 14 13 9 12 14 12 13 11 12
18 19 22 22 24 21 22 21 22 18 17 18 20 19 19 16 13 15 16 15 16 16 16 16 15 15 15 15 14 16 16 17 16 16 15 14 13 13 12 12 12 13 12 12 12 13 14 10 10 9 10 7 10 11
20 21 21 20 20 21 20 19 18 19 20 19 20 19 16 15 15 14 17 15 15 15 15 15 15 15 16 15 14 17 18 15 14 13 13 14 14 12 10 10 8 10 9 10 11 10 10 11 12 11 9 7 3 8
20 19 19 19 20 23 22 22 21 20 17 16 19 16 15 13 13 15 18 16 17 15 17 17 18 17 15 14 14 15 16 14 12 12 12 12 11 12 12 10 8 9 8 8 10 10 10 9 10 11 11 10 9 8
20 19 17 15 18 19 18 18 18 17 18 20 17 14 14 13 13 18 20 19 18 18 19 20 20 17 15 14 13 13 12 12 11 10 10 9 8 6 6 6 7 9 10 7 8 6 8 8 10 10 9 9 9 8
14 17 17 16 16 17 17 17 17 16 15 17 17 15 14 15 15 18 20 18 18 17 17 15 15 15 14 12 11 11 11 10 8 6 4 6 7 8 7 7 5 6 8 11 8 6 6 6 6 7 8 8 5 2
18 18 13 11 13 14 14 15 15 14 13 13 11 11 11 12 14 18 19 18 16 15 15 14 14 13 12 11 11 11 9 9 7 6 6 6 6 6 5 6 5 5 4 5 7 8 7 5 8 5 0 3 5 1
16 17 16 11 9 12 13 12 11 12 12 12 12 10 9 9 11 16 19 16 15 15 14 13 12 12 11 11 10 9 9 9 8 8 7 6 6 5 5 5 5 5 3 3 3 2 5 6 5 1 1 1 1 0
14 16 15 13 12 11 11 11 10 10 10 10 12 10 9 8 7 10 16 18 16 14 13 13 12 12 12 11 9 8 8 8 7 7 6 5 4 4 3 4 3 2 3 2 1 3 3 4 3 2 1 -1 -2 -3
14 12 14 11 9 7 9 10 12 11 11 10 10 9 8 7 6 8 13 18 17 15 13 13 13 12 11 10 9 7 6 4 5 7 5 4 3 4 4 3 1 2 2 1 1 1 0 0 -1 -2 -4 -4 -5 -6

GFSWCAN_sfc_30mbdewp_132.txt.gz
Dewpoint
39 40 43 43 42 40 41 41 41 41 42 41 40 40 38 38 37 35 34 37 29 28 29 30 29 22 19 20 18 23 20 21 20 15 16 18 18 20 19 21 20 17 16 17 20 18 11 26 22 16 24 27 28 29
37 40 40 43 43 42 41 41 39 41 42 42 42 41 38 37 36 35 30 36 35 29 28 32 29 29 25 23 24 24 22 23 23 21 23 22 21 19 17 12 23 17 19 16 19 14 25 27 25 26 27 28 29 29
36 38 39 40 42 43 42 41 40 40 40 42 42 41 38 39 37 35 34 34 28 23 22 24 23 27 29 27 27 23 26 29 27 26 22 21 14 20 15 16 19 20 27 23 22 21 27 28 27 28 27 28 31 31
34 35 40 39 41 43 42 41 41 39 40 42 42 42 40 39 38 36 34 36 29 25 21 22 29 25 29 27 27 28 29 30 29 27 22 20 13 22 18 18 18 18 25 24 24 25 28 29 29 28 27 29 30 32
33 36 36 40 39 42 43 42 41 40 40 41 42 41 39 39 38 36 37 38 35 21 20 23 26 28 29 27 26 26 25 25 25 23 22 18 23 22 22 22 19 21 15 15 13 21 24 27 29 28 27 30 29 27
33 34 36 40 41 41 43 43 41 42 41 42 42 41 38 36 32 28 25 29 37 32 19 19 26 27 28 26 25 24 25 25 25 23 22 24 26 21 17 17 20 23 28 23 24 28 27 29 27 28 27 30 28 25
33 34 35 39 40 40 42 43 42 42 41 42 42 41 37 35 33 26 26 29 37 32 20 18 23 27 27 27 28 26 28 26 25 25 23 23 23 24 21 18 19 27 31 30 30 30 27 25 25 28 27 26 25 23
32 33 35 38 39 39 41 43 42 42 41 41 42 38 38 37 36 35 39 37 34 28 24 19 23 26 30 24 25 29 27 28 28 26 27 25 24 23 19 21 23 29 29 28 28 27 25 25 23 22 22 22 21 20
32 33 35 37 39 38 40 42 43 42 42 41 38 35 31 31 33 36 36 32 32 25 21 20 21 21 31 28 28 28 27 23 27 26 25 26 23 21 23 26 28 27 24 20 20 23 22 21 20 19 19 19 18 18
34 34 35 37 38 38 39 42 43 42 41 37 31 26 24 33 38 35 27 26 24 24 26 20 23 25 28 27 25 25 26 23 20 23 27 24 22 21 19 19 19 20 20 19 19 19 18 19 20 18 17 17 17 16
34 34 35 35 37 39 39 41 42 39 36 34 28 26 31 37 29 24 22 19 21 17 23 23 23 26 32 23 23 22 22 21 19 20 22 22 21 22 18 18 21 22 20 17 17 15 16 17 17 16 15 16 14 15
34 34 34 35 36 37 39 41 40 36 35 32 34 36 34 27 21 17 18 21 20 15 22 20 22 26 30 32 26 25 23 23 18 27 23 19 19 20 19 21 18 16 16 15 14 13 13 15 15 15 15 15 15 16
34 33 33 34 35 37 38 40 38 37 35 32 30 27 23 21 15 11 11 16 18 22 23 24 21 26 30 29 26 24 21 20 26 22 19 18 19 21 21 17 15 15 15 15 14 13 13 13 14 15 13 14 14 13
35 34 33 34 35 36 40 39 38 36 32 28 24 19 15 16 15 15 14 15 19 22 23 22 21 21 27 23 26 22 22 23 19 17 17 17 19 21 19 18 17 15 14 14 15 14 13 12 11 12 12 12 10 12
35 34 33 33 34 35 37 39 38 37 31 25 21 13 15 16 20 18 21 22 25 24 24 25 26 26 26 24 25 21 21 16 17 16 18 18 20 20 19 19 16 12 10 9 12 11 10 10 11 11 10 10 11 10
34 33 33 34 38 37 36 37 36 34 27 23 22 20 21 22 22 24 24 25 28 27 28 27 25 23 21 21 20 18 16 14 16 19 19 21 20 19 19 17 14 12 11 10 10 10 10 11 12 12 10 11 10 10
33 32 35 36 35 34 33 33 33 27 25 21 21 24 22 21 22 24 25 26 30 27 22 25 22 20 23 19 17 21 18 18 19 20 21 19 19 17 16 15 14 13 12 13 12 12 12 11 10 12 13 11 11 12
32 35 36 36 35 33 32 34 25 23 20 22 21 21 22 21 24 25 26 28 30 29 28 24 28 21 21 19 19 19 18 19 20 19 18 17 16 15 16 14 13 12 12 11 13 13 12 13 13 13 13 12 12 12
35 35 35 34 34 33 30 27 24 20 20 21 22 21 21 23 23 24 25 27 28 29 29 26 23 22 19 19 19 17 18 18 17 15 14 13 15 15 15 14 14 13 12 12 14 12 10 11 12 13 12 12 12 11
36 36 36 35 35 27 25 26 25 21 19 21 21 21 20 21 22 23 24 27 28 27 24 24 22 20 19 19 17 17 17 16 16 15 14 14 14 15 15 13 13 13 13 13 12 11 11 12 12 12 10 6 8 11
35 36 35 36 31 27 25 24 23 23 23 21 21 20 20 21 22 22 23 26 25 24 23 18 17 17 19 21 17 17 18 18 16 15 15 15 13 15 13 12 12 13 13 13 13 13 12 11 13 12 11 8 7 8
35 37 34 35 26 25 24 26 24 25 21 21 21 20 19 19 20 21 23 22 21 19 16 15 17 19 21 20 18 18 17 15 14 15 14 14 13 13 13 14 13 13 13 12 13 12 12 12 13 12 10 11 9 8
35 33 28 25 21 21 22 26 20 20 17 20 23 19 19 20 20 22 18 18 16 13 14 14 17 17 19 16 17 16 15 15 14 14 15 14 13 14 14 14 15 14 14 13 11 11 9 10 10 12 10 10 10 8
30 26 25 22 21 20 23 24 25 22 21 20 19 18 19 19 17 16 15 14 13 15 15 16 17 18 18 18 17 16 16 14 13 14 13 13 14 14 13 14 12 12 12 13 12 10 9 10 8 9 9 10 8 9
15 18 20 20 22 22 20 21 20 17 15 18 19 18 18 16 14 13 13 13 14 15 15 17 17 18 17 15 15 15 14 15 15 14 13 13 12 11 12 12 12 11 11 13 12 11 11 7 8 10 10 9 10 8
15 20 20 19 21 20 19 17 18 17 18 17 18 17 15 14 13 11 13 15 14 13 14 16 16 15 16 16 16 15 16 16 15 14 12 13 13 12 11 12 12 11 8 10 11 11 11 9 10 10 9 7 6 5
18 19 19 20 22 23 21 20 20 19 16 15 17 16 15 12 11 12 15 14 14 13 15 16 16 16 15 15 14 14 14 14 14 14 12 12 11 11 10 9 8 7 8 8 8 9 9 9 9 9 8 5 6 6
19 18 18 16 18 17 18 18 18 17 16 17 16 15 13 11 11 14 17 16 14 15 16 16 17 16 15 15 13 12 11 9 9 9 8 7 6 7 8 8 8 8 7 6 6 5 7 7 7 6 7 8 7 1
15 16 16 16 16 16 16 17 16 15 15 16 16 14 13 13 13 15 17 17 17 16 16 15 13 12 12 11 10 10 10 10 10 10 10 8 6 7 4 6 6 5 5 4 6 6 7 6 6 7 6 4 0 -4
17 15 14 12 15 14 13 12 14 12 11 13 12 12 12 11 11 12 15 16 16 16 15 14 12 12 11 12 10 9 7 7 7 8 7 6 5 4 5 7 7 4 3 5 7 6 7 4 3 2 3 2 0 1
15 16 14 11 11 9 9 7 5 6 8 9 5 10 10 8 8 8 14 15 14 13 14 13 12 12 12 11 11 10 10 8 5 5 4 4 4 6 5 5 5 4 5 6 6 5 4 4 3 3 3 2 0 -1
13 14 14 13 12 8 6 8 7 8 6 8 9 5 8 8 9 7 10 13 14 13 12 12 13 12 11 12 11 11 11 10 8 5 6 5 6 6 4 3 2 3 3 2 2 3 3 4 2 1 0 -1 -2 -3
10 10 7 9 9 7 5 6 6 7 6 8 8 6 6 7 8 8 9 10 13 14 13 13 12 11 11 11 10 8 8 8 8 8 7 6 6 5 3 3 2 3 2 2 2 2 2 1 -0 -1 -2 -3 -4 -6